View from above orbital plane
|
View from above satellite
|
Ground track
|
The orbit data is extracted from the following two-line orbital elements,
1 00053U 60009E 21058.66508796 -.00000025 00000-0 60048-3 0 9995
2 00053 47.2744 191.9539 0100016 115.9399 245.1735 12.17254594699652
Epoch (UTC): | 27 February 2021 15:57:43 |
Eccentricity: | 0.0100016 |
inclination: | 47.2744° |
perigee height: | 1524 km |
apogee height: | 1684 km |
right ascension of ascending node: | 191.9539° |
argument of perigee: | 115.9399° |
revolutions per day: | 12.17254594 |
mean anomaly at epoch: | 245.1735° |
orbit number at epoch: | 69965 |
The dashed part of the orbit path shows where the satellite is in the earth's shadow,
|
|